GW2987 Weather Reports


time (UTC)temp
F
wind
direction
speed
knots
gust
knots
rain 1hr
in
rain 24hr
in
rain mn
in
humidity
%
barometer
mb
20260505062024 72 0 0.0 0.0 0.00 0.13 0.00 92 1013.6
20260505061609 72 0 0.0 2.6 0.00 0.13 0.00 92 1013.6
20260505061024 72 0 0.0 4.3 0.00 0.13 0.00 92 1013.6
20260505060524 73 0 0.0 4.3 0.00 0.13 0.00 92 1013.6
20260505060046 73 91 0.0 3.5 0.00 0.13 0.00 92 1013.5
20260505055524 72 0 0.0 0.9 0.00 0.13 0.00 92 1013.7
20260505055027 73 0 0.0 1.7 0.00 0.13 0.00 92 1013.7
20260505054555 73 72 0.0 3.5 0.00 0.13 0.00 92 1013.6
20260505054023 73 104 0.0 3.5 0.00 0.13 0.00 92 1013.7
20260505053523 72 0 0.0 0.9 0.00 0.13 0.00 93 1014.0
20260505053041 72 0 0.0 0.9 0.00 0.13 0.00 92 1014.2
20260505052524 72 0 0.0 0.9 0.00 0.13 0.00 93 1014.1
20260505052023 72 0 0.0 0.0 0.00 0.13 0.00 92 1014.2
20260505051538 73 0 0.0 0.0 0.00 0.13 0.00 92 1014.2
20260505051027 73 0 0.0 2.6 0.00 0.13 0.00 92 1014.1
20260505050524 73 0 0.0 2.6 0.00 0.13 0.00 92 1014.0
20260505041538 73 113 0.0 1.7 0.00 0.13 0.00 91 1014.5
20260505041023 73 95 0.0 0.9 0.00 0.13 0.00 91 1014.7
20260505040523 73 0 0.0 0.0 0.00 0.13 0.00 91 1014.6
20260505040040 73 0 0.0 1.7 0.00 0.13 0.00 91 1014.4
20260505035526 73 0 0.0 2.6 0.00 0.13 0.13 90 1014.7
20260505035023 73 0 0.0 2.6 0.00 0.13 0.13 90 1014.7
20260505034537 73 96 0.9 2.6 0.00 0.13 0.13 90 1014.8
20260505034024 73 0 0.0 2.6 0.00 0.13 0.13 90 1014.5
20260505033526 74 85 0.0 1.7 0.00 0.13 0.13 90 1014.5
20260505033046 74 73 0.0 1.7 0.00 0.13 0.13 90 1014.4
20260505032524 74 98 0.0 3.5 0.00 0.13 0.13 89 1014.4
20260505032024 74 0 0.0 3.5 0.00 0.13 0.13 89 1014.3
20260505031540 74 89 0.9 3.5 0.00 0.13 0.13 89 1014.2
20260505031023 74 0 0.9 5.2 0.00 0.13 0.13 89 1014.1
20260505030524 74 101 1.7 5.2 0.00 0.13 0.13 89 1014.2
20260505030039 74 89 0.9 4.3 0.00 0.13 0.13 89 1014.3
20260505025530 74 80 0.9 5.2 0.00 0.13 0.13 89 1014.4
20260505025024 74 120 0.9 5.2 0.00 0.13 0.13 89 1014.5
20260505024602 74 0 1.7 4.3 0.00 0.13 0.13 88 1014.4
20260505024024 74 0 0.0 0.9 0.00 0.13 0.13 88 1014.3
20260505023524 74 0 0.0 2.6 0.00 0.13 0.13 88 1014.3
20260505023040 74 0 0.0 2.6 0.00 0.13 0.13 88 1014.4
20260505022524 74 107 0.0 3.5 0.00 0.13 0.13 88 1014.4
20260505022024 74 0 0.0 3.5 0.00 0.13 0.13 88 1014.4
20260505021546 74 96 0.9 2.6 0.00 0.13 0.13 88 1014.2
20260505021024 74 98 0.9 1.7 0.00 0.13 0.13 89 1014.2
20260505020525 74 108 0.0 4.3 0.00 0.13 0.13 89 1014.4
20260505020044 74 96 0.9 4.3 0.00 0.13 0.13 89 1014.6
20260505015528 74 82 0.9 3.5 0.00 0.13 0.13 90 1014.4
20260505015024 74 73 0.9 4.3 0.00 0.13 0.13 90 1014.5
20260505014540 74 101 1.7 4.3 0.00 0.13 0.13 90 1014.2
20260505014026 73 117 0.9 3.5 0.00 0.13 0.13 90 1014.3
20260505013523 73 91 1.7 3.5 0.00 0.13 0.13 91 1014.2
20260505013038 73 49 0.9 3.5 0.00 0.13 0.13 91 1014.2
20260505012523 73 89 0.9 6.1 0.00 0.13 0.13 91 1014.2
20260505012025 73 101 0.9 6.1 0.00 0.13 0.13 91 1014.1
20260505011548 73 91 0.9 7.0 0.00 0.13 0.13 91 1014.1
20260505011025 73 87 1.7 7.0 0.00 0.13 0.13 91 1013.9
20260505010528 73 80 2.6 7.0 0.00 0.13 0.13 90 1014.0
20260505010039 73 87 1.7 7.0 0.00 0.13 0.13 90 1014.0
20260505005524 73 136 2.6 8.7 0.00 0.13 0.13 89 1014.2
20260505005024 74 91 3.5 8.7 0.00 0.13 0.13 90 1014.3
20260505004545 74 95 1.7 7.0 0.01 0.13 0.13 90 1014.0
20260505004025 74 70 1.7 5.2 0.02 0.13 0.13 90 1014.0
20260505003523 74 84 1.7 6.1 0.03 0.13 0.13 90 1014.0
20260505003039 74 94 1.7 6.1 0.03 0.13 0.13 90 1013.8
20260505002524 74 88 2.6 6.1 0.03 0.13 0.13 90 1013.9
20260505002024 74 71 1.7 6.1 0.03 0.13 0.13 90 1013.8
20260505001538 74 77 1.7 10.4 0.03 0.13 0.13 90 1013.8
20260505001023 74 85 2.6 10.4 0.03 0.13 0.13 90 1013.7
20260505000523 74 86 2.6 6.1 0.03 0.13 0.13 90 1013.8
20260505000040 74 64 0.9 6.1 0.03 0.13 0.13 90 1013.7
20260504235524 74 98 1.7 5.2 0.03 0.30 0.13 89 1013.9
20260504235025 74 86 0.9 7.0 0.03 0.30 0.13 88 1013.8
20260504234537 75 89 1.7 7.0 0.02 0.29 0.12 87 1013.7
20260504234024 76 59 2.6 7.0 0.00 0.27 0.10 85 1013.6
20260504233524 76 90 2.6 8.7 0.00 0.27 0.10 82 1013.6
20260504233055 76 72 3.5 9.6 0.00 0.27 0.10 80 1013.6
20260504232524 76 106 2.6 9.6 0.00 0.27 0.10 80 1013.5
20260504232023 77 73 4.3 9.6 0.00 0.27 0.10 80 1013.4
20260504231540 77 109 1.7 6.1 0.00 0.27 0.10 80 1013.6
20260504231023 77 78 3.5 7.0 0.00 0.27 0.10 80 1013.3
20260504230525 77 122 3.5 7.0 0.00 0.27 0.10 79 1013.2
20260504230043 77 92 3.5 11.3 0.00 0.27 0.10 79 1013.2
20260504225525 77 95 3.5 11.3 0.00 0.27 0.10 79 1013.2
20260504225023 77 183 3.5 7.8 0.00 0.27 0.10 79 1013.3
20260504224538 77 144 3.5 10.4 0.00 0.27 0.10 79 1013.4
20260504224023 77 101 3.5 10.4 0.00 0.27 0.10 79 1013.3
20260504223524 77 68 4.3 8.7 0.00 0.27 0.10 79 1013.4
20260504223040 78 115 5.2 8.7 0.00 0.27 0.10 79 1013.4
20260504222525 78 75 2.6 7.8 0.00 0.27 0.10 79 1013.3
20260504222024 77 88 1.7 7.8 0.00 0.27 0.10 80 1013.4
20260504221540 77 103 1.7 11.3 0.00 0.27 0.10 81 1013.4
20260504221025 77 91 2.6 11.3 0.00 0.27 0.10 81 1013.4
20260504220526 77 63 2.6 11.3 0.00 0.27 0.10 81 1013.1
20260504215524 77 94 2.6 7.8 0.00 0.27 0.10 81 1013.1
20260504215024 77 84 3.5 7.8 0.00 0.27 0.10 82 1013.2
20260504214542 76 78 1.7 6.1 0.00 0.27 0.10 83 1013.3
20260504214023 76 93 2.6 6.1 0.00 0.27 0.10 83 1013.4
20260504213525 76 71 3.5 6.1 0.00 0.27 0.10 84 1013.4
20260504213038 76 75 1.7 3.5 0.00 0.27 0.10 86 1013.5
20260504212524 76 92 0.0 4.3 0.00 0.27 0.10 87 1013.6
20260504212027 76 85 1.7 8.7 0.00 0.27 0.10 86 1013.5
20260504211537 76 117 1.7 8.7 0.00 0.27 0.10 86 1013.6
20260504211024 76 96 0.9 7.0 0.00 0.27 0.10 86 1013.6
20260504210526 76 94 1.7 7.8 0.00 0.27 0.10 85 1013.6
20260504210037 77 59 2.6 7.8 0.00 0.27 0.10 85 1013.7
20260504205527 77 96 3.5 7.0 0.00 0.27 0.10 86 1013.6
20260504205023 76 85 2.6 7.0 0.00 0.27 0.10 87 1013.7
20260504204557 75 63 1.7 7.8 0.00 0.27 0.10 89 1013.7
20260504204024 75 99 1.7 9.6 0.00 0.27 0.10 90 1013.6
20260504203525 75 82 4.3 9.6 0.00 0.27 0.10 89 1013.6
20260504203042 75 140 4.3 9.6 0.00 0.27 0.10 88 1013.6
20260504202525 75 110 4.3 8.7 0.00 0.27 0.10 87 1013.7
20260504202025 76 106 3.5 11.3 0.00 0.27 0.10 86 1013.8
20260504201539 76 71 4.3 11.3 0.00 0.27 0.10 84 1014.0
20260504201024 78 82 4.3 11.3 0.00 0.27 0.10 82 1014.0
20260504200524 78 127 2.6 8.7 0.00 0.27 0.10 80 1014.0
20260504200043 79 100 3.5 9.6 0.00 0.27 0.10 79 1014.0
20260504195524 78 85 3.5 9.6 0.00 0.27 0.10 77 1014.0
20260504195024 79 148 4.3 9.6 0.00 0.27 0.10 75 1014.1
20260504194541 79 65 4.3 10.4 0.00 0.27 0.10 75 1013.9
20260504194024 79 72 3.5 10.4 0.00 0.27 0.10 75 1013.9
20260504193525 80 153 3.5 12.2 0.00 0.27 0.10 76 1013.9
20260504193037 80 336 3.5 12.2 0.00 0.27 0.10 74 1014.1
20260504192525 80 77 5.2 12.2 0.00 0.27 0.10 73 1014.1
20260504192024 81 65 4.3 11.3 0.00 0.27 0.10 74 1014.1
20260504191541 80 90 4.3 11.3 0.00 0.27 0.10 75 1014.2
20260504191028 80 356 3.5 9.6 0.00 0.27 0.10 75 1014.2
20260504190525 80 98 3.5 9.6 0.00 0.27 0.10 74 1014.3
20260504190040 80 74 2.6 13.9 0.00 0.27 0.10 76 1014.4
20260504185523 80 96 4.3 13.9 0.00 0.27 0.10 74 1014.6
20260504185024 80 83 2.6 10.4 0.00 0.27 0.10 75 1014.8
20260504184539 80 271 3.5 13.0 0.00 0.27 0.10 76 1014.8
20260504184024 79 122 3.5 13.0 0.00 0.27 0.10 77 1014.8
20260504183524 79 41 5.2 12.2 0.00 0.27 0.10 76 1014.8
20260504183037 80 153 5.2 12.2 0.00 0.27 0.10 77 1014.9
20260504182524 80 72 3.5 11.3 0.00 0.27 0.10 78 1014.9
20260504182024 79 101 3.5 11.3 0.00 0.27 0.10 78 1014.9
20260504181542 78 112 3.5 11.3 0.00 0.27 0.10 80 1014.9
20260504181024 77 84 4.3 10.4 0.00 0.27 0.10 82 1014.9
20260504180523 77 167 2.6 6.1 0.00 0.27 0.10 84 1014.9
20260504180041 76 93 1.7 6.1 0.01 0.27 0.10 86 1015.0
20260504175523 76 84 2.6 7.0 0.02 0.27 0.10 87 1014.9
20260504175024 76 84 1.7 7.0 0.03 0.27 0.10 88 1014.9
20260504174540 75 119 2.6 6.1 0.04 0.27 0.10 89 1014.9
20260504174024 74 84 3.5 7.8 0.04 0.27 0.10 90 1015.0
20260504173524 74 98 2.6 8.7 0.04 0.27 0.10 90 1015.2
20260504173039 74 55 3.5 8.7 0.04 0.27 0.10 90 1015.3
20260504172527 74 133 2.6 8.7 0.04 0.27 0.10 90 1015.4
20260504172023 74 70 1.7 7.0 0.04 0.27 0.10 90 1015.4
20260504171539 74 146 2.6 10.4 0.04 0.27 0.10 89 1015.4
20260504171025 74 146 3.5 10.4 0.04 0.27 0.10 89 1015.4
20260504170524 74 85 1.7 7.0 0.04 0.27 0.10 88 1015.3
20260504151039 80 115 3.5 11.3 0.00 0.23 0.06 77 1015.2
20260504150527 80 142 3.5 7.8 0.00 0.23 0.06 77 1015.2
20260504141024 79 334 0.0 5.2 0.00 0.23 0.06 81 1015.0
20260504140524 79 1 1.7 4.3 0.00 0.23 0.06 81 1014.9
20260504130525 76 0 0.0 2.6 0.00 0.23 0.06 93 1014.8
20260504110524 0 0.0 0.0 0.00 0.23 0.06 1013.7
20260504100524 0 0.0 0.0 0.00 0.23 0.06 1013.7
20260504081546 0 0.0 0.0 0.06 0.23 0.06 97 1012.9
20260504081024 0 0 0.0 0.0 0.06 0.23 0.06 97 1012.9
20260504080525 71 0 0.0 0.0 0.06 0.23 0.06 97 1012.8